DATE,AVE_SWS,AVE_RWS,AVE_RWD,WD_SD,MAX_WS,MAX_WST,AVE_TEMP,MAX_TEMP,MAX_TEMT,MIN_TEMP,MIN_TEMT,MAX_RH,MAX_RHT,MIN_RH,MIN_RHT,MAX_GSW,MAX_GSWT,TOT_GSW,MAX_DSW,MAX_DSWT,TOT_DSW,MAX_NETR,MAX_NETT,MIN_NETR,TOT_NETR,MAX_GPAR,MAX_GPAT,TOT_GPAR,MAX_DPAR,MAX_DPAT,TOT_DPAR,AVE_BP,AVE_RH,POT_PAR,POT_SW,KT_PAR,KT_SW,tot_prec
1/1/2016,1.858,1.556,260,31.28,7.399,1301,1.243,3.549,1100,-0.616,2359,100,243,52.43,1619,222.5,1055,2178.808,179.6,1043,2221.73501,134.5,1055,-53.49,245.5612,320.8,1055,3.104119,336.1,1043,4.34203353,749.8,76.215,47.26163096,26724.93767,6.567947269,8.152714993,0
1/2/2016,2.352,2.125,261.4,25.11,7.742,1306,-0.447,2.979,1156,-3.636,532,82.8,148,43.69,1116,568.5,1154,6763.242,255.9,1324,2810.2271,326.3,1244,-53.25,1326.313,776.3,1153,9.059134,603.8,1018,8.36378364,749.6,63.245,46.81747933,26473.78415,19.34989694,25.54694093,0
1/3/2016,2.353,1.938,233.9,33.93,9.21,1055,0.847,4.971,1325,-2.479,136,79.15,2145,47.88,1105,627.1,1055,6206.092,238.3,1054,3150.94148,368.4,1055,-49.17,1120.107,849,1055,8.280519,619.7,1010,8.43482875,745.6,63.515,46.37753898,26225.01198,17.85458906,23.66478232,0
1/4/2016,3.28,2.89,358.5,27.91,12.99,1530,-7.532,0.428,18,-14.56,2359,81.5,48,46.28,949,506.2,1237,9416.149,149.5,1436,1853.55154,264.8,1237,-61.41,1827.299,780.8,1238,13.71632,608.3,1012,6.74976505,752.6,63.89,45.93544322,25975.021,29.85999272,36.25078494,0
1/5/2016,1.909,1.293,15.41,44.86,10.93,52,-11.9,-5.084,1448,-15.7,724,85.6,2327,29.06,1416,476.5,1201,9505.043,48.91,1201,1356.20634,234.1,1151,-64.27,628.2048,724.3,1147,14.09633,604.9,1008,5.87108989,764.1,57.33,45.49131509,25723.88078,30.98685974,36.95026844,0
1/6/2016,1.155,0.932,172,34.05,4.998,1258,-5.946,5.427,1423,-17.01,654,89,840,14.32,1425,496.5,1021,9882.388,54.11,1225,1380.9428,227.5,1116,-56.3,1753.78,671.1,1213,13.23802,598.2,1005,5.75923954,761.9,51.66,45.0477931,25473.08331,29.38661162,38.7954135,0
1/7/2016,0.853,0.347,129.3,59.01,2.891,1230,-4.93,4.999,1530,-11.73,745,86.3,2353,24.8,1539,461,1257,6995.686,188.2,1031,3023.70687,228.4,1257,-51.7,218.9676,660.5,1255,10.16185,372.4,1010,6.0275256,757.2,55.55,44.60647046,25223.5295,22.78111201,27.7347625,0
1/8/2016,1.323,1.117,125.2,29.57,6.86,1232,-2.139,7.658,1322,-12.26,723,94.1,732,46.23,1324,525.9,1020,7968.402,197.8,1305,3444.15693,263.9,1133,-41.35,2846.217,706.3,1133,10.94007,671.8,1000,8.28086625,755.4,70.165,44.16350018,24973.044,24.7717458,31.90801249,0
1/9/2016,1.254,0.765,140.5,48.31,7.252,1137,3.956,7.022,1146,-0.247,646,94.4,605,67.59,1148,280.7,1137,3000.375,262.5,1137,3082.91458,190.1,1138,-35.24,1855.189,421.6,1137,4.667634,506.4,1137,6.16894002,754.3,80.995,43.71901713,24721.70308,10.67643855,12.13660317,0
1/10/2016,4.04,2.791,118.7,44.99,18.08,920,8.64,15.43,1444,3.286,2359,100,1231,56.52,2308,525.3,1315,2400.612,342.6,1339,2383.56513,339.6,1315,-43.07,1167.393,836,1315,3.909999,666.3,1339,4.85816052,739.2,78.26,43.27812734,24472.39403,9.034584536,9.809469384,24.3
1/11/2016,3.474,3.2,214.1,22.67,13.38,102,-1.942,3.312,0,-7.301,2359,61.3,3,27.9,1518,580.3,1323,9816.436,199.6,1322,2383.42997,327.2,1323,-61.96,1611.884,843,1322,13.81828,648.6,949,6.31225758,746.5,44.6,42.83749515,24223.23065,32.25744164,40.5248835,0
1/12/2016,1.916,1.31,127,45.12,13.28,2254,-3.278,2.695,1419,-9.04,46,100,1711,35.27,1055,558.1,1203,5092.853,257.8,1049,3876.94143,292.8,1203,-57.32,1531.558,774.8,1203,7.515586,484.7,1049,7.75543066,745.8,67.635,42.39576424,23973.44598,17.72720963,21.24372527,1.1
1/13/2016,3.119,2.803,218,25.8,9.7,143,-5.666,-3.174,1528,-7.656,2352,63.05,501,34.54,1508,480,1133,6188.284,228.4,1208,3749.55531,145.1,1244,-54.39,-986.7709,698.1,1244,9.131609,449.2,958,7.4041302,746.7,48.795,41.95397337,23723.6274,21.7657787,26.08489796,0
1/14/2016,1.729,1.449,174,32.31,8.43,1627,-4.223,0.468,1434,-8.7,630,83.2,803,50.63,1405,548.4,1115,7598.627,210.9,1435,3609.66144,231.2,1401,-41.68,2014.633,799.8,1230,11.05209,595.8,929,7.12559814,747.8,66.915,41.51691088,23476.48257,26.62069447,32.36697396,0
1/15/2016,1.539,1.406,79.23,23.1,5.88,2224,2.84,8.5,1327,-4.686,256,93,0,52.9,1328,408.3,1236,6731.953,250.9,1230,4877.88516,230,1236,-37.48,2821.156,565.3,1235,9.363305,470.9,1229,9.92062955,745.8,72.95,41.07918424,23228.96218,22.79330803,28.98085996,0
1/16/2016,1.42,0.635,236.1,59.44,7.203,121,4.23,8.07,1424,2.009,904,100,116,65.24,2336,702.1,1131,5045.003,374.1,1226,3517.85728,411.5,1131,-8.8,2702.17,1007,1131,7.215131,700.1,1226,6.82553749,738.5,82.62,40.6409486,22981.15397,17.75335284,21.9527836,8.3
1/17/2016,1.076,0.87,304.5,33.19,6.272,415,-1.064,2.958,0,-4.871,2316,100,2151,55.63,937,149.8,1112,2536.477,143.2,1112,2577.17965,83,1112,-51.25,199.5476,223.1,1112,3.800224,276.9,1112,5.07578447,744.6,77.815,40.20549431,22734.91852,9.452001687,11.1567455,0.3
1/18/2016,3.354,2.838,240.8,31.76,14.11,1002,-5.663,-2.773,350,-8.36,755,100,0,27.96,1504,643.8,1136,8030.064,238.3,1251,3837.56954,365.1,1136,-64.82,1923.988,990,1248,11.35991,467.7,920,7.78684228,744,63.98,39.77307221,22490.39769,28.56181172,35.70441088,0
1/19/2016,3.692,3.382,249.3,23.47,13.87,1355,-5.866,-2.467,1403,-9.55,226,68.95,2357,31.7,1356,524.6,1306,10593.17,140.3,1406,2018.76829,274.5,1307,-58.06,2640.615,807,1306,15.59413,423.2,912,5.50847632,748.5,50.325,39.34060338,22245.85043,39.63876672,47.61863358,0
1/20/2016,1.164,0.579,306.1,54.77,7.056,1239,-3.997,2.022,1352,-10.64,640,89.6,646,30.15,1355,540.4,1150,9996.846,166.2,1236,2919.07886,286.2,1251,-50.77,2360.816,798.6,1250,13.97723,389.8,904,6.68564471,752.8,59.875,38.90825428,22001.37086,35.92355982,45.43737781,0
1/21/2016,1.974,1.701,292.4,29.13,9.6,1231,-4.259,0.879,1328,-9.57,526,85,531,32.92,1329,517.4,1204,10695.37,55.12,1520,1582.35954,267.5,1200,-59.69,2269.135,784.7,1221,15.80996,367.2,858,4.59895961,753.2,58.96,38.48134169,21759.96547,41.08474213,49.15159453,0
1/22/2016,1.906,1.551,330.2,34.36,10.44,1033,-6.275,-2.946,1255,-12.56,722,78.59,756,35.47,1323,446.4,1210,7331.97,244.4,1135,4418.08065,241.6,1211,-57.94,1369.225,679.6,1223,10.92477,444.5,1134,8.97188483,755.5,57.03,38.0560014,21519.44917,28.7070885,34.07136466,0
1/23/2016,2.728,2.364,336.8,29.55,11.76,1056,-4.281,-1.531,1234,-7.615,2359,62.44,2359,44.84,1504,128,1230,1595.821,123.2,1230,1661.63742,80.8,1231,-47.84,302.5885,225,1230,2.891087,256.1,1230,3.55836931,746.6,53.64,37.63126823,21279.27618,7.682672246,7.499413922,0
1/24/2016,2,1.697,338.3,31.02,12.64,12,-5.082,0.68,1419,-10.96,702,75.2,704,28.25,1348,539.5,1159,10442,130.2,1548,2113.41735,281.5,1203,-57.58,2634.983,839,1157,15.80957,313.8,1547,5.00177674,748.8,51.725,37.20800442,21039.93405,42.48970147,49.62943312,0
1/25/2016,1.156,0.566,144.7,55.29,5.096,1335,-2.373,3.684,1358,-10.52,728,90.2,652,40.22,1358,539.7,1144,9371.156,195.8,1328,3349.134,282.5,1224,-42.46,2604.972,833,1230,14.0054,372.7,1354,7.10525111,755.6,65.21,36.79118965,20804.23866,38.06726592,45.04445538,0
1/26/2016,1.668,1.431,157,30.19,7.301,1507,2.715,7.735,1450,-4.713,750,88.2,755,53.03,1451,385.2,1135,4962.304,278.8,1213,4661.30543,215.5,1120,-39.85,1642.679,625.9,1135,8.215796,523.3,1211,8.9119054,749.8,70.615,36.37548432,20569.17062,22.58608003,24.12495911,0
1/27/2016,1.76,1.37,280.3,35.22,10.24,1254,2.284,7.884,1232,-6.646,2332,87.6,646,28.97,1444,658.6,1051,9640.48,219,1050,2976.69081,370.1,1231,-50.12,3349.827,1030,1102,15.22346,512.2,928,6.31848693,750.3,58.285,35.9610716,20334.83351,42.33316562,47.40869895,0
1/28/2016,1.711,1.373,137,35.56,8.53,1154,-1.817,6.574,1351,-10.59,640,96.1,704,34.13,1419,562.1,1115,12088.51,89.2,1115,1999.41861,280.3,1115,-48.77,3676.086,885,1210,18.32216,490,917,6.10977373,747.2,65.115,35.55027888,20102.54339,51.53872369,60.13423161,0
1/29/2016,1.294,0.609,285.8,57.13,6.958,2005,-1.142,1.599,1443,-5.386,2339,98.8,1357,58.38,1030,228.6,835,3168.826,186.7,1417,3101.40207,122.7,1412,-50.11,371.7094,394.1,1414,5.979874,346.4,1047,6.24631149,739.1,78.59,35.14503704,19873.39212,17.0148462,15.94506857,0.4
1/30/2016,1.559,1.31,137.3,31.26,6.713,1643,-2.179,6.289,1457,-10.78,631,97.1,524,33.06,1458,779.9,1100,8885.144,287,1115,3674.1829,437.4,1100,-46.41,3131.636,1192,1140,15.70289,536.7,1117,7.76286664,749.3,65.08,34.74160746,19645.26562,45.19908878,45.22791482,0
1/31/2016,1.972,1.769,142.6,25.99,5.733,2038,6.583,16.23,1457,-0.072,238,66.65,2353,28.26,1456,613.6,1254,8508.67,303.5,1217,4394.51485,354.9,1254,-31.01,3374.786,1146,1312,14.71199,567.3,1216,8.82210139,746.7,47.455,34.34018097,19418.2718,42.84191168,43.81785407,0
2/1/2016,1.931,0.45,269.6,70.73,7.301,937,8.2,14.57,1208,2.033,2336,70.54,604,32.09,1319,574.2,955,5633.875,334.6,954,5143.10272,327.5,956,-45.92,2001.413,1076,955,10.3679,645.4,954,10.32043712,745.9,51.315,33.94408044,19194.28965,30.54405913,29.35182861,0
2/2/2016,1.248,0.408,88,64.75,5.635,1359,1.182,9.01,1446,-6.313,712,98.5,722,33.65,1548,578.4,1114,12339.22,99,1113,1876.31136,312.2,1114,-44.58,4137.75,1015,1116,21.02574,376.2,830,4.8718992,756.9,66.075,33.55308985,18973.197,62.66409471,65.03500703,0
2/3/2016,2.439,2.16,128.9,27.24,14.75,1721,8.48,15.09,1819,-0.144,11,100,927,61.79,59,86.9,1426,750.0762,84,1426,799.200976,65.05,1427,-37.53,312.0978,190.7,1426,1.758786,187.8,1426,1.88128192,750.8,80.895,33.16463305,18753.53713,5.303197528,3.999651878,16.8
2/4/2016,1.683,0.697,319.2,61.67,9.26,611,8.16,13.56,28,2.977,2359,100,353,46.49,1436,375.6,1434,5955.974,279.7,1213,5733.66192,219.7,1245,-29.99,2925.617,658,1153,10.24305,532,1213,10.94609712,750,73.245,32.77890636,18535.42105,31.24890711,32.1329307,1
2/5/2016,2.543,2.088,310.3,33.87,13.08,1357,0.589,4.196,1522,-5.633,2353,89,823,27.03,1630,757.7,1320,5612.366,310.1,1259,2712.32752,468.4,1320,-60.67,942.9214,1234,1303,9.032981,569.8,1259,5.61025248,753.6,58.015,32.39964837,18320.96281,27.87987356,30.63357564,0.6
2/6/2016,1.691,1.379,135.7,34.58,7.546,1322,-1.622,6.44,1453,-9.23,452,91.4,507,29.55,1415,630.2,1154,11241.85,196.8,942,4179.62832,327.2,1155,-50.73,2907.112,911,1154,16.59356,376.4,941,8.459948,757.6,60.475,32.02561504,18109.45895,51.81339993,62.07722734,0
2/7/2016,1.159,0.584,95.8,55.79,5.39,1754,1.18,9.58,1501,-6.541,621,88.7,649,28.47,1410,597,1237,12524.72,101.8,1244,2372.06032,327.6,1156,-46.49,4030.458,903,1156,18.59851,438.3,853,6.46227904,752.6,58.585,31.65484615,17899.80102,58.75406853,69.9712806,0
2/8/2016,1.798,1.454,352.7,35.09,8.72,527,-1.419,1.79,436,-5.021,2359,94.7,0,27.07,1118,368,1305,4801.498,291.6,1306,4929.12336,226.3,1305,-30.2,2240.42,634.7,1305,8.454815,556.9,1305,9.73277312,745.2,60.885,31.28754092,17692.10169,27.02294508,27.13921775,2.5
2/9/2016,0.862,0.28,106.8,63.21,4.214,837,-3.636,-0.004,1356,-8.28,706,99,744,59.05,1359,581.2,1235,6087.545,214.4,1411,3260.86656,111.7,1217,-150,-429.8518,1128,1214,9.832099,413.3,1411,5.73690656,740.9,79.025,30.92715379,17488.31431,31.79115371,34.8092154,1.1
2/10/2016,1.326,0.695,229.3,54.58,6.664,1424,-0.83,3.046,1333,-3.846,2231,100,415,45.06,1333,583.2,1324,4334.682,353.6,1059,4457.98976,116.6,1324,-100.5,-454.1102,1057,1106,7.888834,631.1,1059,8.71384976,740.1,72.53,30.57276886,17287.92099,25.80346594,25.07347183,3.6
2/11/2016,3.532,3.186,259.3,25.34,14.26,1023,-7.196,-2.603,105,-11.54,2359,89.7,205,30.92,1351,873,1117,9641.045,314.7,1211,6323.52784,172.2,1117,-52.36,-408.716,1410,1115,15.85252,664.6,910,13.6789184,746.9,60.31,30.22237704,17089.78565,52.45292247,56.41407796,0.7
2/12/2016,1.6,1.004,160.7,48.71,7.35,1126,-9.92,-4.118,1435,-18.96,642,87,627,31.12,1559,688.5,1212,11594.07,325.6,1233,6359.56944,144.6,1213,-48.29,168.0302,1122,1212,18.60075,588,1233,13.5671984,751.8,59.06,29.8761776,16894.02096,62.25947058,68.62824445,0
2/13/2016,2.986,2.526,275.2,31.28,12.94,1445,-12.57,-7.734,913,-21.44,2359,89,610,28.4,1233,697.7,1219,12321.73,246.6,1016,3840.57184,159.5,1003,-61.25,-306.8997,1223,1259,21.02602,441.4,1015,7.48703984,750.6,58.7,29.53651187,16701.95088,71.18653716,73.77419615,0
2/14/2016,1.649,1.074,326.3,46.63,7.154,935,-19.42,-12.06,1555,-24.99,709,76,2307,25.26,1606,650.5,1200,14947.21,68.59,1227,2141.00208,127.4,1159,-64.84,-830.4719,1167,1200,26.19633,375.8,828,5.72642448,761.2,50.63,29.20440401,16514.15452,89.69993017,90.51150624,0
2/15/2016,1.177,0.225,62.13,69.02,5.635,1633,-13.32,-4.614,2342,-22.97,653,100,2207,49.39,1113,220.9,1023,3411.355,211,1023,3497.1496,65.08,1021,-43.33,-255.675,464.3,1023,7.288166,414.3,1023,7.24452512,760.1,74.695,28.87700383,16329.02021,25.23865026,20.89136369,5.6
2/16/2016,3.19,2.077,128.8,44.2,16.61,1144,6.138,12.75,1518,-4.928,0,100,0,76.64,2258,194.5,1154,1736.428,184.4,1154,1817.86528,141.9,1006,-48.69,1034.866,383.2,1154,3.549678,394.5,1154,4.05538224,743.2,88.32,28.55450749,16146.65887,12.43123525,10.75410098,27.3
2/17/2016,1.013,0.651,265.5,46.5,5.586,920,0.062,1.366,1206,-3.947,2358,100,122,66.25,1359,184.9,909,2883.363,171.4,909,2989.7,126.9,909,-50.48,1049.534,306.5,909,4.987072,321,909,5.93158496,749.4,83.125,28.23717735,15967.21885,17.66136869,18.05801641,0
2/18/2016,2.086,1.781,299.8,30.6,10.19,1317,-3.851,-0.731,1335,-7.905,2359,94.7,27,25.03,1342,667.5,1202,15555.69,55.63,1211,1861.07824,379.5,1226,-63.89,5332.626,1012,1226,23.09981,424.8,830,5.46770784,760.3,59.865,27.92986175,15793.44172,82.70649603,98.4946174,0
2/19/2016,1.612,1.248,121.7,36.46,7.497,1739,-3.524,4.398,1459,-12.97,656,88.5,707,18.77,1548,692.8,1054,9345.654,299.5,1146,6874.93408,410.5,1054,-59.7,3485.108,1028,1054,14.11229,561.4,1330,13.9577648,760.7,53.635,27.62794147,15622.71548,51.07977378,59.82093199,0
2/20/2016,2.449,2.015,149.6,34.07,11.76,1455,8.97,16.61,1545,1.271,2,79.14,324,28.02,1557,811,1200,13963.41,223.8,1140,3014.35792,492.2,1201,-34.51,6629.791,1197,1200,20.50455,405.7,1137,6.32182656,746.9,53.58,27.33160629,15455.14743,75.02138654,90.34795729,0.3
2/21/2016,1.774,0.608,278.4,64.52,7.399,1434,6.385,12.34,1503,-1.363,727,88.8,732,34.49,1503,630,1346,10536.12,308,1223,5625.59424,366.4,1347,-40.22,4116.827,1035,1346,16.5695,579.1,1223,11.2400512,747.7,61.645,27.04104449,15290.84404,61.27536978,68.90476399,0
2/22/2016,1.373,0.991,323.6,40.64,6.419,1140,1.754,7.567,1437,-4.606,2346,88.9,516,24.27,1539,669.3,1139,15621.02,65.03,1153,2134.1208,378.7,1205,-51.63,6120.182,1097,1205,25.57422,135.1,1148,4.75733328,753.5,56.585,26.75775614,15130.65356,95.57684834,103.2408808,0
2/23/2016,1.256,0.451,352.1,62.75,8.28,1309,-1.545,2.94,1409,-6.695,312,100,1728,50.21,0,208.6,845,3609.938,187.1,944,3672.8048,120,1105,-43.56,1253.686,392.5,944,7.122071,359.6,944,7.32331488,758,75.105,26.48362476,14975.64105,26.89235731,24.10539881,4.5
2/24/2016,1.999,0.447,95.9,70.28,24.26,2340,4.924,16.85,2323,-0.097,124,100,0,99,2349,142.6,1111,1611.06,133.3,1111,1668.25456,77.77,1111,-3.707,1168.837,295.9,1111,3.499959,286.3,1111,3.78155344,746,99.5,26.21571643,14824.14748,13.35061359,10.86780877,66.3
2/25/2016,3.451,2.435,134.8,43.94,12.74,1642,8.88,15.31,955,1.888,2343,100,0,54.25,955,746.5,951,4564.696,260,950,3146.0408,471.9,951,-41.68,1901.053,1228,950,8.173376,492.9,950,6.70200272,731.7,77.125,25.95420891,14676.27336,31.49152427,31.10255505,11.8
2/26/2016,2.981,2.631,224.3,27.56,11.56,1338,-1.565,2.144,1355,-7.969,2347,74.27,136,23,1457,932,1203,17249.77,307.9,1203,2863.57904,574,1217,-60.02,7103.061,1506,1222,26.0786,543,1203,6.17066576,745.6,48.635,25.69927743,14532.11778,101.4760048,118.7010061,0
2/27/2016,1.649,1.097,132,45.69,9.9,1858,-2.026,5.223,1442,-10.11,645,88.4,649,30.73,1444,718.3,1153,16995.33,76.3,905,2318.97904,413.8,1201,-55.54,5966.743,1082,1202,25.20167,162.2,903,5.21508736,750.3,59.565,25.45149304,14392.00364,99.01843465,118.0887,0
2/28/2016,2.052,1.644,114.5,36.1,9.65,1624,7.592,16.99,1538,0.045,337,64.05,551,22.62,1608,807,1153,14138.76,335.1,1128,7049.37408,462.3,1154,-45.8,5868.186,1201,1154,21.07229,631,1128,13.3508704,746,43.335,25.21403294,14257.72757,83.57365936,99.16559237,0
2/29/2016,2.416,1.49,152.2,50.09,11.52,1442,8.27,13.86,1453,4.687,545,88.1,1149,35.09,2056,923,1229,6989.292,384.7,1242,4318.48928,543.4,1223,-45.76,2056.267,1489,1229,10.58765,696.3,1242,8.61344736,741.5,61.595,24.9835418,14127.39221,42.37849896,49.47333446,1
3/1/2016,2.565,0.305,88.4,75.57,12.99,135,3.153,9.68,1611,-4.288,704,84.6,2358,22.47,1612,727.1,1156,14398.13,341.3,1123,5764.96557,434.1,1127,-53.42,6275.13,1159,1126,22.39253,647.6,1123,11.3018256,750.3,53.535,24.76018035,14001.08848,90.43766919,102.8357904,0
3/2/2016,3.833,2.19,201.1,53.02,14.16,957,3.352,10.88,410,-6.277,2332,100,138,32.17,1333,832,1023,15512.39,322.6,1029,3932.37468,502.3,1023,-58.14,7164.193,1220,1152,23.84258,599,1029,7.95210039,742.8,66.085,24.54410577,13878.90523,97.14177497,111.7695506,4.4
3/3/2016,1.215,0.713,269.1,50.17,5.537,817,-4.259,1.817,1538,-10.6,619,88.8,625,23.01,1539,752.5,1154,17445.12,187.6,1356,3438.10701,436.5,1154,-57.58,6913.191,1268,1148,27.32488,333.1,1357,7.23775104,754.8,55.905,24.33547145,13760.9292,112.2841612,126.7728345,0
3/4/2016,1.768,1.389,295.2,37.36,7.84,1641,-2.18,3.732,1433,-6.671,654,85.7,512,37.97,1533,963,1254,12042.6,355.1,1219,7088.27418,601.3,1254,-53.58,5006.384,1499,1253,18.79012,637.2,1218,13.342446,753.1,61.835,24.13468339,13647.38999,77.85525792,88.24104838,0.2
3/5/2016,1.517,1.279,280.9,30.34,8.13,1333,-2.762,2.485,1441,-8.39,637,65.99,238,18.88,1443,809,1216,14921.63,375.1,1129,6982.47225,486.7,1212,-57.5,6023.203,1295,1215,23.4962,685.3,1129,12.9518064,754.4,42.435,23.94447506,13539.83327,98.12785598,110.2054191,0
3/6/2016,1.152,0.25,336.6,63.8,6.223,1053,-0.856,5.809,1556,-6.444,401,77.35,443,25.32,1518,754.3,1141,18119.1,138.3,751,2614.09941,438.9,1159,-50.97,7640.729,1261,1159,28.95651,256.2,751,5.75447535,756.5,51.335,23.76201516,13436.65805,121.860498,134.8482631,0
3/7/2016,1.845,1.272,126.4,43.66,11.17,1413,5.664,16.08,1431,-6.131,205,83.9,207,29.22,1432,900,1142,13270.29,354.3,1223,8476.37622,533.4,1142,-40.54,6344.857,1347,1333,19.98956,652.2,1223,15.9178266,752.7,56.56,23.58743829,13337.94042,84.74663402,99.49279711,0
3/8/2016,1.102,0.527,90.3,55.95,4.263,1343,9.29,18.55,1702,-1.258,643,92.5,657,33.82,1245,851,1215,13665.78,312.4,1249,6412.56174,511.9,1215,-32.23,6682.062,1447,1212,20.98888,600.1,1249,13.199004,753,63.16,23.42087438,13243.75387,89.61612475,103.1866051,0
3/9/2016,2.313,1.526,129.1,47.26,9.02,1407,16.69,27.73,1440,2.298,635,94.3,657,17.63,1600,738.4,1147,18086.44,136.1,1519,3214.16667,432.9,1158,-37.04,8708.835,1176,1214,27.6791,255.2,1519,7.27149267,751,55.965,23.26244854,13154.16913,118.9861848,137.4958754,0
3/10/2016,1.26,0.616,161.3,56.27,7.889,1235,16.58,22.01,953,12.26,2359,100,1725,34.06,44,760.3,914,4598.281,363.9,912,4475.03589,459,915,-14.02,2664.76,1408,914,9.152941,709.4,912,9.25860429,748.9,67.03,23.11228089,13069.25414,39.60206717,35.18395887,4.2
3/11/2016,1.818,1.346,294,40.41,9.7,1159,10.48,14.74,1418,2.396,2357,100,0,34.13,1622,795.2,1151,17628.19,213.6,929,4068.12861,493,1150,-53.26,8850.969,1335,1246,29.45137,406.2,929,7.90521381,753.5,67.065,22.97048636,12989.07388,128.2139592,135.7155265,2.5
3/12/2016,1.795,1.069,146.5,50.84,9.31,1453,8.35,18.39,1511,-3.11,633,99.4,705,24.45,1511,842,1351,19334.54,232.4,1403,4221.06633,499.4,1352,-52.28,8789.733,1464,1346,32.12208,416.8,1403,8.19574119,754.8,61.925,22.83766642,12913.96846,140.6539504,149.7180364,0
3/13/2016,1.427,0.724,304.8,54.45,8.92,802,9.78,14.75,1301,2.208,634,96.4,548,25.56,1710,742.3,915,13230.07,316.1,1300,8208.78201,440.8,915,-33.37,6473.38,1258,915,23.50616,568.3,1300,15.1493823,751.4,60.98,22.71498898,12844.5983,103.483035,103.0010413,0
3/14/2016,2.363,1.939,56.47,34.13,11.61,953,6.346,10.15,116,3.913,1823,94.8,1856,29.93,426,250,1358,3632.227,229.7,1358,3828.25404,164.7,1358,-17.07,1814.846,529.1,1358,7.936897,469.3,1358,8.04147318,752.7,62.365,22.60085646,12780.06002,35.11768243,28.42104806,1.4
3/15/2016,1.482,1.021,336.1,44.97,7.007,1044,8.97,13.86,1531,4.923,35,91.2,625,58.39,1531,689.4,1137,9333.862,474,1118,9390.58965,445.8,1137,-35.82,5697.408,1354,1137,17.79796,890,1118,18.0120564,746,74.795,22.49536043,12720.40539,79.11835891,73.3770797,0
3/16/2016,1.376,0.378,97.6,65.06,7.497,2257,11.88,20.4,1458,4.916,604,99,2359,38.71,1459,736,1329,16036.67,356.3,1207,7823.9421,446.6,1329,-39,8862.102,1374,1329,29.54666,653.6,1205,14.7307446,745.5,68.855,22.39858662,12665.68291,131.9130555,126.6151231,3.3
3/17/2016,1.931,1.364,149.1,43.05,14.46,1437,9.73,18.36,1342,2.962,2352,100,47,24.47,1310,1016,1239,13007.04,365.5,1108,6243.11766,660.3,1119,-49.51,6559.833,1686,1239,21.42846,693.4,1108,11.8897155,744.9,62.235,22.31061489,12615.93771,96.04603059,103.1000652,0.3
3/18/2016,2.944,2.432,210,33.62,14.16,1335,6.312,10.78,1034,0.676,2353,83,0,35.74,1055,940,1025,12264.81,379.1,1409,8341.27632,594.3,1025,-56.02,5021.948,1600,1054,19.85258,661.5,1409,15.7034709,745.5,59.37,22.23151901,12571.21152,89.29925118,97.56267308,0
3/19/2016,1.662,1.185,285.8,42.65,6.713,1426,1.29,7.365,1524,-3.43,611,62.36,49,17.35,1349,842,1207,21030.03,202.8,1407,3183.27165,507.6,1221,-60.34,8805.759,1423,1219,35.28285,352.2,1407,6.50234169,752.4,39.855,22.16136662,12531.5426,159.2088187,167.8167699,0
3/20/2016,1.12,0.459,336.9,59.19,6.909,911,-0.194,4.841,1431,-6.31,632,61.92,647,25.7,1538,896,1426,11212.02,410.2,1206,8643.9015,554.9,1428,-58.79,4704.232,1764,1426,21.05508,742.1,1201,16.3613034,752.5,43.81,22.10021912,12496.96564,95.2709106,89.71793889,0
3/21/2016,2.383,1.917,236.3,34.22,12.89,1611,2.495,9.47,1347,-1.877,603,90.5,609,13.04,1312,1010,1117,19082.11,281.8,1116,4637.41902,651,1117,-54.72,9216.208,1892,1131,34.69803,502.7,1116,8.89331859,746,51.77,22.04813156,12467.5118,157.3740156,153.0546777,0.3
3/22/2016,2.79,1.958,178.2,44.23,12.01,1215,5.041,12.93,1514,-2.841,607,62.65,642,20.14,1514,1005,1155,19912.78,275.1,1154,4604.1606,644.7,1155,-53.99,9320.337,1915,1155,37.02111,504.9,1154,9.36626184,751,41.395,22.00515255,12443.20855,168.2383701,160.0293037,0
3/23/2016,1.795,0.195,100.3,76.25,8.87,1647,9.98,19.39,1346,3.059,2345,68.79,317,23.98,1440,648.9,1344,10847.36,385.7,1310,9508.1571,395.2,1344,-41.32,5362.953,1252,1344,21.07905,712.1,1310,18.0960741,749.2,46.385,21.97132423,12424.07972,95.93891463,87.30916291,0
3/24/2016,2.258,1.321,78.63,51.69,10.09,1328,7.314,16.69,1459,-0.909,541,85.4,0,33.15,1423,848,1233,18926.43,293.9,1120,7884.70371,532.1,1233,-42.05,10138.91,1607,1231,35.94082,560,1120,15.1480251,750.7,59.275,21.94668215,12410.14541,163.7642526,152.5077215,0
3/25/2016,2.195,0.547,316.6,69.29,10.54,1937,10.33,21.65,1243,0.78,2359,100,520,46.25,1449,1113,1158,10823.45,462.7,1326,7717.59846,750.1,1159,-49.35,5692.142,2261,1219,20.80718,861,1326,15.0231159,745.2,73.125,21.93125523,12401.42198,94.87455134,87.27587868,1.8
3/26/2016,1.795,0.6,312.4,65.61,7.301,514,5.158,12.17,1640,0.318,127,85.1,2336,34.69,1641,885,958,20104.61,358.3,927,4790.77794,551.6,1102,-49.39,10053.98,1799,939,37.35471,653,926,9.51354963,757.4,59.895,21.9250657,12397.922,170.3744495,162.1611267,0
3/27/2016,1.772,1.319,118.4,40.74,7.693,1304,7.55,15.07,1537,3.103,2,85.1,3,42.62,1538,970,1130,14888.84,449.9,1101,7384.7943,607.9,1131,-39.93,8174.654,1769,1130,28.06434,845,1101,13.9247082,757.7,63.86,21.92812909,12399.65425,127.9832852,120.0746384,0
3/28/2016,2.623,1.473,156.2,53.4,15.14,1901,6.53,11.83,1631,3.394,638,100,640,56.02,2334,566.6,1540,5180.878,291.9,1508,4900.13199,319.5,1540,-38.1,2582.233,1149,1515,10.6918,567.7,1309,9.90601326,742.4,78.01,21.94045416,12406.62368,48.73098763,41.75896791,9.3
3/29/2016,3.559,2.595,291.2,41.98,12.69,15,5.601,10.28,1415,-2.445,2340,65.33,547,18.68,1451,897,1117,23542.62,139.8,1010,2830.52601,561.6,1117,-61.04,11709.21,1636,1117,42.82984,281.4,1010,6.57051642,748.4,42.005,21.96204286,12418.8314,195.0175595,189.5719432,0
3/30/2016,2.239,1.776,174.7,36.4,10,1739,5.606,16.5,1454,-6.657,538,85.3,540,13.46,1434,898,1202,23534.28,108.2,735,3510.81549,546.4,1201,-52.12,11341.32,1628,1201,42.54272,222.4,735,7.36080462,755.8,49.38,21.99289037,12436.27468,193.4385126,189.2389853,0